Powrót do katalogu

STARLINK-35636

AktywnyŁącznośćVLEO
NORAD 66160·PAYLOAD·🇺🇸 United States

Wystrzelony Oct 25, 2025 z Cape Canaveral Space Force Station

Loading…

Następne Przeloty (najbliższe 24 godziny)

TLE

ŚwieżeSource: CelesTrak SupGP

Epoka: Sep 14, 2026, 21:33 UTC

1 66160C 25240Q   26257.89840278  .00053448  00000+0  15804-2 0  2570
2 66160  53.1571 261.5692 0001496 108.1312 151.2390 15.34337400    12

Śledź STARLINK-35636 w czasie rzeczywistym z AllMySat

Download on the App Store